Location: Proctor
(47.8934°N, 114.3048°W)
Time: 07:09:42
(UTC+00:00)

DIWATA 2B (PO-101) - Visible Passes

Search period start: 25 June 2022 00:00
Search period end: 05 July 2022 00:00
Orbit: 585 x 597 km, 98.0° (Epoch: 24 June)

Date Brightness Start Highest point End Pass type
(mag) Time Alt. Az. Time Alt. Az. Time Alt. Az.
25 Jun ? 08:51:34 13° SE 08:55:01 43° ENE 08:59:02 10° N visible
25 Jun ? 10:28:08 12° SW 10:30:44 20° W 10:33:55 10° NW visible
26 Jun ? 09:00:01 15° SE 09:03:20 52° ENE 09:07:26 10° N visible
26 Jun ? 10:36:34 11° SW 10:39:09 17° W 10:41:58 10° NW visible
27 Jun ? 09:08:28 17° SSE 09:11:39 63° ENE 09:15:50 10° N visible
27 Jun ? 10:45:18 10° WSW 10:47:35 14° W 10:49:53 10° WNW visible
28 Jun ? 07:44:44 10° ENE 07:45:13 10° NE 07:45:41 10° NE visible
28 Jun ? 09:16:54 18° SSE 09:19:58 77° ENE 09:24:12 10° N visible
28 Jun ? 10:54:30 10° WSW 10:56:02 12° W 10:57:33 10° WNW visible
29 Jun ? 07:51:47 10° E 07:53:26 12° ENE 07:55:05 10° NE visible
29 Jun ? 09:25:21 19° SSE 09:28:18 88° WSW 09:32:32 10° NNW visible
30 Jun ? 07:59:24 10° E 08:01:40 14° ENE 08:03:55 10° NNE visible
30 Jun ? 09:33:48 20° S 09:36:38 73° WSW 09:40:52 10° NNW visible
01 Jul ? 08:07:12 10° E 08:09:54 17° ENE 08:12:36 10° NNE visible
01 Jul ? 09:42:14 20° S 09:44:58 59° WSW 09:49:10 10° NNW visible
02 Jul ? 08:15:06 10° ESE 08:18:08 20° ENE 08:21:11 10° NNE visible
02 Jul ? 09:50:41 20° SSW 09:53:20 48° W 09:57:26 10° NNW visible
03 Jul ? 08:23:04 10° ESE 08:26:23 23° ENE 08:29:44 10° NNE visible
03 Jul ? 09:59:08 19° SSW 10:01:42 40° W 10:05:42 10° NNW visible
04 Jul ? 08:31:06 10° ESE 08:34:39 27° ENE 08:38:13 10° N visible
04 Jul ? 10:07:34 18° SSW 10:10:04 33° W 10:13:54 10° NNW visible
